SVA1244 OEDM-OERK

Flight info

Callsign SVA1244
Flight time 0h 31m
Altitude 31000
Route DAW M872 ORDEM
Aircraft A320/M-SDE3FGHIRWY/LB1

Departure

Time 2026-05-07 14:18
Airport Dawadmi Domestic Airport (OEDM)

Arrival

Time 2026-05-07 14:50
Airport King Khalid International Airport (OERK)
Time Latitude Longitude Altitude Speed Heading
2026-05-07 14:01 24.44505 44.12758 3039 ft 0 kts 147°
2026-05-07 14:13 24.44502 44.12760 3039 ft 1 kts 147°
2026-05-07 14:13 24.44492 44.12765 3039 ft 2 kts 156°
2026-05-07 14:14 24.44470 44.12759 3039 ft 5 kts 231°
2026-05-07 14:14 24.44464 44.12698 3037 ft 10 kts 259°
2026-05-07 14:14 24.44430 44.12606 3035 ft 15 kts 242°
2026-05-07 14:14 24.44381 44.12502 3032 ft 11 kts 241°
2026-05-07 14:15 24.44320 44.12476 3033 ft 10 kts 157°
2026-05-07 14:15 24.44239 44.12520 3033 ft 16 kts 152°
2026-05-07 14:15 24.44119 44.12585 3034 ft 20 kts 155°
2026-05-07 14:15 24.43990 44.12653 3034 ft 19 kts 153°
2026-05-07 14:16 24.43883 44.12711 3036 ft 14 kts 153°
2026-05-07 14:16 24.43842 44.12779 3036 ft 11 kts 99°
2026-05-07 14:16 24.43792 44.12821 3037 ft 9 kts 201°
2026-05-07 14:16 24.43772 44.12772 3037 ft 7 kts 312°
2026-05-07 14:17 24.43819 44.12747 3037 ft 7 kts 336°
2026-05-07 14:17 24.43913 44.12694 3035 ft 40 kts 334°
2026-05-07 14:17 24.44378 44.12443 3032 ft 105 kts 336°
2026-05-07 14:17 24.45201 44.12001 3024 ft 158 kts 333°
2026-05-07 14:18 24.46242 44.11438 3412 ft 170 kts 338°
2026-05-07 14:18 24.47326 44.10871 3904 ft 179 kts 339°
2026-05-07 14:18 24.48470 44.10302 4470 ft 186 kts 340°
2026-05-07 14:18 24.49653 44.09738 5058 ft 186 kts 341°
2026-05-07 14:19 24.50889 44.09551 5459 ft 183 kts 20°
2026-05-07 14:19 24.51908 44.10412 5624 ft 199 kts 59°
2026-05-07 14:19 24.52253 44.11985 5589 ft 232 kts 89°
2026-05-07 14:19 24.52205 44.13875 5659 ft 259 kts 90°
2026-05-07 14:20 24.52133 44.15889 5736 ft 267 kts 90°
2026-05-07 14:20 24.52084 44.17920 5861 ft 275 kts 89°
2026-05-07 14:20 24.52046 44.20049 6521 ft 279 kts 90°
2026-05-07 14:20 24.51999 44.22164 7454 ft 274 kts 90°
2026-05-07 14:21 24.51961 44.24185 8163 ft 277 kts 91°
2026-05-07 14:21 24.51927 44.26286 8874 ft 281 kts 91°
2026-05-07 14:21 24.51896 44.28460 9609 ft 285 kts 91°
2026-05-07 14:21 24.51867 44.30606 10312 ft 289 kts 91°
2026-05-07 14:22 24.51828 44.33640 10853 ft 310 kts 91°
2026-05-07 14:22 24.51809 44.35245 11064 ft 321 kts 91°
2026-05-07 14:22 24.51786 44.37794 11372 ft 339 kts 91°
2026-05-07 14:22 24.51762 44.40437 11681 ft 354 kts 91°
2026-05-07 14:23 24.51734 44.43173 12222 ft 362 kts 91°
2026-05-07 14:23 24.51705 44.45954 12908 ft 365 kts 91°
2026-05-07 14:23 24.51708 44.48724 13572 ft 368 kts 89°
2026-05-07 14:23 24.51875 44.51544 14225 ft 372 kts 85°
2026-05-07 14:24 24.52241 44.54380 14861 ft 376 kts 81°
2026-05-07 14:24 24.52715 44.57206 15479 ft 380 kts 81°
2026-05-07 14:24 24.53210 44.60068 16079 ft 384 kts 81°
2026-05-07 14:24 24.53712 44.62967 16674 ft 388 kts 81°
2026-05-07 14:25 24.54218 44.65903 17257 ft 392 kts 82°
2026-05-07 14:25 24.54696 44.68700 17800 ft 396 kts 82°
2026-05-07 14:25 24.55213 44.71729 18366 ft 400 kts 82°
2026-05-07 14:25 24.55729 44.74758 18806 ft 407 kts 82°
2026-05-07 14:26 24.56248 44.77816 19246 ft 414 kts 82°
2026-05-07 14:26 24.56780 44.80937 19954 ft 413 kts 82°
2026-05-07 14:26 24.57300 44.83976 20952 ft 404 kts 83°
2026-05-07 14:26 24.57810 44.86960 21966 ft 394 kts 83°
2026-05-07 14:27 24.58304 44.89869 22965 ft 385 kts 83°
2026-05-07 14:27 24.58785 44.92707 23868 ft 377 kts 83°
2026-05-07 14:27 24.59267 44.95576 24500 ft 378 kts 83°
2026-05-07 14:27 24.59744 44.98420 24848 ft 387 kts 83°
2026-05-07 14:28 24.60240 45.01394 24921 ft 403 kts 83°
2026-05-07 14:28 24.60756 45.04484 24934 ft 420 kts 83°
2026-05-07 14:28 24.61293 45.07690 24939 ft 435 kts 83°
2026-05-07 14:28 24.61850 45.11019 24939 ft 448 kts 83°
2026-05-07 14:29 24.62420 45.14414 24900 ft 451 kts 82°
2026-05-07 14:29 24.62993 45.17813 24587 ft 449 kts 82°
2026-05-07 14:29 24.63551 45.21135 24264 ft 446 kts 82°
2026-05-07 14:29 24.64112 45.24480 23856 ft 442 kts 82°
2026-05-07 14:30 24.64665 45.27795 23393 ft 438 kts 82°
2026-05-07 14:30 24.65213 45.31080 22904 ft 434 kts 82°
2026-05-07 14:30 24.65751 45.34316 22408 ft 431 kts 82°
2026-05-07 14:30 24.66291 45.37573 21899 ft 427 kts 82°
2026-05-07 14:31 24.66813 45.40725 21396 ft 423 kts 82°
2026-05-07 14:31 24.67337 45.43888 20886 ft 419 kts 82°
2026-05-07 14:31 24.67857 45.47034 20369 ft 415 kts 82°
2026-05-07 14:31 24.68368 45.50127 19857 ft 411 kts 81°
2026-05-07 14:32 24.68874 45.53196 19339 ft 407 kts 81°
2026-05-07 14:32 24.69381 45.56270 18816 ft 404 kts 81°
2026-05-07 14:32 24.69881 45.59307 18290 ft 400 kts 81°
2026-05-07 14:32 24.70371 45.62291 17771 ft 396 kts 81°
2026-05-07 14:33 24.70857 45.65257 17279 ft 392 kts 81°
2026-05-07 14:33 24.71379 45.68176 16965 ft 393 kts 78°
2026-05-07 14:33 24.72026 45.71125 16918 ft 394 kts 77°
2026-05-07 14:33 24.72687 45.74035 16897 ft 394 kts 77°
2026-05-07 14:34 24.73354 45.76962 16451 ft 393 kts 77°
2026-05-07 14:34 24.74014 45.79864 15478 ft 400 kts 77°
2026-05-07 14:34 24.74688 45.82841 14662 ft 401 kts 76°
2026-05-07 14:34 24.75356 45.85790 14147 ft 394 kts 76°
2026-05-07 14:35 24.76016 45.88699 13822 ft 383 kts 76°
2026-05-07 14:35 24.76656 45.91528 13053 ft 385 kts 76°
2026-05-07 14:35 24.77300 45.94382 12544 ft 379 kts 76°
2026-05-07 14:35 24.77935 45.97189 12497 ft 376 kts 76°
2026-05-07 14:36 24.78570 46.00000 12408 ft 376 kts 76°
2026-05-07 14:36 24.79201 46.02797 12260 ft 376 kts 76°
2026-05-07 14:36 24.79830 46.05587 12025 ft 375 kts 76°
2026-05-07 14:36 24.80462 46.08393 11773 ft 374 kts 76°
2026-05-07 14:37 24.81084 46.11160 11523 ft 372 kts 76°
2026-05-07 14:37 24.82457 46.16652 11004 ft 369 kts 69°
2026-05-07 14:37 24.83509 46.19214 10722 ft 368 kts 62°
2026-05-07 14:38 24.85015 46.21487 10373 ft 361 kts 43°
2026-05-07 14:38 24.86920 46.23251 10020 ft 352 kts 38°
2026-05-07 14:38 24.88807 46.24886 9800 ft 340 kts 38°
2026-05-07 14:38 24.90642 46.26476 9670 ft 326 kts 38°
2026-05-07 14:39 24.92386 46.28004 9539 ft 313 kts 39°
2026-05-07 14:39 24.94047 46.29473 9395 ft 301 kts 39°
2026-05-07 14:39 24.95653 46.30901 9149 ft 294 kts 39°
2026-05-07 14:39 24.97266 46.32339 8767 ft 292 kts 39°
2026-05-07 14:40 24.98825 46.33733 8381 ft 290 kts 39°
2026-05-07 14:40 25.00392 46.35134 7997 ft 288 kts 40°
2026-05-07 14:40 25.01929 46.36510 7617 ft 286 kts 40°
2026-05-07 14:40 25.03498 46.37916 7225 ft 284 kts 40°
2026-05-07 14:41 25.05033 46.39292 6838 ft 282 kts 40°
2026-05-07 14:41 25.06547 46.40646 6620 ft 273 kts 40°
2026-05-07 14:41 25.08013 46.41942 6442 ft 264 kts 40°
2026-05-07 14:41 25.09432 46.43189 6269 ft 255 kts 40°
2026-05-07 14:42 25.10813 46.44394 6099 ft 247 kts 40°
2026-05-07 14:42 25.12133 46.45531 5936 ft 238 kts 39°
2026-05-07 14:42 25.13435 46.46643 5774 ft 230 kts 39°
2026-05-07 14:42 25.14680 46.47704 5603 ft 222 kts 39°
2026-05-07 14:43 25.15900 46.48740 5344 ft 219 kts 39°
2026-05-07 14:43 25.17082 46.49789 5057 ft 216 kts 46°
2026-05-07 14:43 25.18079 46.50975 4995 ft 202 kts 51°
2026-05-07 14:43 25.18845 46.52211 4967 ft 193 kts 75°
2026-05-07 14:44 25.18870 46.53673 4985 ft 193 kts 111°
2026-05-07 14:44 25.18069 46.54842 4987 ft 196 kts 147°
2026-05-07 14:44 25.16796 46.55445 5008 ft 198 kts 158°
2026-05-07 14:44 25.15504 46.55982 4995 ft 197 kts 154°
2026-05-07 14:45 25.14271 46.56631 4992 ft 196 kts 149°
2026-05-07 14:45 25.13072 46.57361 4990 ft 196 kts 148°
2026-05-07 14:45 25.11892 46.58110 4989 ft 196 kts 147°
2026-05-07 14:45 25.10710 46.58865 4983 ft 196 kts 147°
2026-05-07 14:46 25.09529 46.59619 4812 ft 196 kts 148°
2026-05-07 14:46 25.08345 46.60371 4559 ft 196 kts 148°
2026-05-07 14:46 25.07194 46.61099 4385 ft 186 kts 148°
2026-05-07 14:46 25.06074 46.61808 4098 ft 183 kts 148°
2026-05-07 14:47 25.04982 46.62498 3830 ft 178 kts 148°
2026-05-07 14:47 25.03945 46.63154 3615 ft 165 kts 148°
2026-05-07 14:47 25.02991 46.63756 3365 ft 150 kts 147°
2026-05-07 14:47 25.02118 46.64308 3157 ft 142 kts 147°
2026-05-07 14:48 25.01255 46.64853 2967 ft 142 kts 147°
2026-05-07 14:48 25.00408 46.65390 2822 ft 142 kts 148°
2026-05-07 14:48 24.99534 46.65921 2604 ft 141 kts 148°
2026-05-07 14:48 24.98689 46.66457 2467 ft 141 kts 147°
2026-05-07 14:49 24.97847 46.67009 2305 ft 142 kts 148°
2026-05-07 14:49 24.96995 46.67550 2082 ft 139 kts 147°
2026-05-07 14:49 24.96203 46.68055 2051 ft 113 kts 150°
2026-05-07 14:49 24.95676 46.68390 2051 ft 64 kts 151°
2026-05-07 14:50 24.95371 46.68580 2051 ft 46 kts 150°
2026-05-07 14:50 24.95136 46.68730 2051 ft 33 kts 149°
2026-05-07 14:50 24.95000 46.68878 2051 ft 26 kts 126°
2026-05-07 14:50 24.94964 46.69055 2051 ft 23 kts 71°
2026-05-07 14:51 24.94978 46.69164 2051 ft 12 kts 132°
2026-05-07 14:51 24.94906 46.69215 2051 ft 12 kts 149°
2026-05-07 14:51 24.94830 46.69265 2051 ft 12 kts 149°
2026-05-07 14:51 24.94754 46.69313 2051 ft 12 kts 150°
2026-05-07 14:52 24.94675 46.69364 2051 ft 13 kts 150°
2026-05-07 14:52 24.94596 46.69412 2051 ft 13 kts 150°
2026-05-07 14:52 24.94518 46.69467 2051 ft 13 kts 128°
2026-05-07 14:52 24.94532 46.69554 2051 ft 12 kts 50°
2026-05-07 14:53 24.94575 46.69638 2051 ft 12 kts 60°
2026-05-07 14:53 24.94619 46.69722 2051 ft 12 kts 61°
2026-05-07 14:53 24.94664 46.69807 2051 ft 12 kts 60°
2026-05-07 14:53 24.94709 46.69895 2051 ft 13 kts 61°
2026-05-07 14:54 24.94753 46.69982 2051 ft 13 kts 57°
2026-05-07 14:54 24.94802 46.70070 2051 ft 13 kts 60°
2026-05-07 14:54 24.94849 46.70161 2051 ft 13 kts 60°
2026-05-07 14:54 24.94897 46.70251 2051 ft 13 kts 60°
2026-05-07 14:55 24.94945 46.70343 2051 ft 13 kts 60°
2026-05-07 14:55 24.94993 46.70435 2051 ft 13 kts 60°
2026-05-07 14:55 24.95042 46.70527 2051 ft 13 kts 60°
2026-05-07 14:55 24.95090 46.70620 2051 ft 14 kts 59°
2026-05-07 14:56 24.95140 46.70713 2051 ft 14 kts 60°
2026-05-07 14:56 24.95182 46.70792 2051 ft 10 kts 59°
2026-05-07 14:56 24.95184 46.70867 2051 ft 10 kts 124°
2026-05-07 14:56 24.95125 46.70910 2051 ft 10 kts 151°
2026-05-07 14:57 24.95062 46.70949 2051 ft 10 kts 150°
2026-05-07 14:57 24.95002 46.70987 2051 ft 9 kts 150°
2026-05-07 14:57 24.94946 46.71023 2050 ft 9 kts 149°
2026-05-07 14:57 24.94890 46.71058 2050 ft 9 kts 152°
2026-05-07 14:58 24.94826 46.71097 2050 ft 11 kts 151°
2026-05-07 14:58 24.94760 46.71140 2050 ft 10 kts 149°
2026-05-07 14:58 24.94729 46.71188 2050 ft 8 kts 58°
2026-05-07 14:58 24.94749 46.71220 2050 ft 6 kts 58°
2026-05-07 14:59 24.94764 46.71248 2050 ft 6 kts 61°
2026-05-07 14:59 24.94765 46.71251 2051 ft 0 kts 61°